Location: LewisvilleTX
(33.0462°N, 96.9942°W)
Time: 18:31:23
(UTC+00:00)

Hubble Space Telescope - Pass Details

Date: 15 September 2019
Orbit: 536 x 540 km, 28.5° (Epoch: 23 September)

Event Time Altitude Azimuth Distance (km) Brightness Sun altitude
Exits shadow 11:43:59 - 254° (WSW) 1,947 2.9 -6.6°
Reaches altitude 10° 11:44:26 10° 253° (WSW) 1,780 2.8 -6.5°
Maximum altitude 11:48:22 44° 180° (S) 743 1.4 -5.6°
Drops below altitude 10° 11:52:18 10° 108° (ESE) 1,783 4.7 -4.8°
Sets 11:54:37 0° 102° (ESE) 2,675 6.1 -4.3°
